Theta_e
314 314 313 313 313 314 314 314 314 316 316 316 316 317 316 317 317 312 311 315 321 316 317 320 318 314 311 308 303 310 307 308 304 299 300 297 298 299 298 302 300 296 295 296 298 294 293 312 311 306 310 314 318 316
314 313 313 312 313 313 313 313 314 315 315 315 316 316 316 316 316 314 309 320 320 320 317 322 322 318 315 314 307 309 308 308 310 303 303 304 300 300 300 295 305 294 300 298 301 301 310 312 311 313 316 314 316 320
313 313 312 312 313 313 313 312 313 315 315 315 315 316 316 316 317 313 309 313 319 318 316 315 315 319 316 314 314 307 311 315 313 312 306 305 302 303 296 298 302 305 307 299 305 308 309 311 313 313 314 314 316 322
313 312 312 312 312 312 312 312 313 315 315 315 315 315 316 316 316 312 309 313 314 318 311 311 320 316 319 316 318 315 312 315 315 312 306 301 300 307 300 303 301 305 306 301 304 309 310 312 312 313 314 316 316 320
312 311 311 312 312 311 312 312 312 313 315 313 314 315 315 316 314 311 310 312 316 315 311 312 320 319 317 317 318 318 313 311 310 304 303 301 307 307 305 303 300 305 302 300 302 310 309 309 311 313 312 312 314 318
311 311 311 312 311 311 311 312 312 313 314 314 314 314 315 315 312 310 312 319 321 322 315 309 320 321 317 317 316 313 314 312 310 308 306 310 312 307 299 300 306 307 312 313 310 316 316 315 315 313 312 313 312 316
310 310 311 311 311 311 311 311 312 313 314 314 315 314 314 314 308 307 310 316 310 311 317 309 310 316 318 316 313 313 313 311 311 309 306 307 307 306 300 300 308 310 313 315 315 313 310 314 310 312 314 316 314 314
309 310 311 311 311 311 311 312 312 313 313 314 314 314 313 312 308 306 311 311 313 319 315 307 307 311 317 310 308 315 311 312 311 308 310 307 310 310 300 305 307 312 312 312 311 312 310 312 315 314 314 313 312 310
309 310 311 311 310 311 312 312 312 313 313 313 314 314 310 308 309 313 321 316 323 319 309 306 303 304 317 311 311 313 312 306 314 307 307 309 299 289 303 307 309 312 309 310 311 310 309 313 312 311 313 311 308 308
309 310 311 311 310 310 312 312 313 313 313 314 311 307 306 314 319 321 319 316 315 313 316 310 313 308 314 311 308 310 312 306 304 309 312 307 304 309 312 312 313 313 310 312 307 306 307 309 310 310 309 309 309 310
309 309 311 311 310 310 312 312 312 313 310 307 307 313 324 319 320 315 308 306 307 303 306 309 311 310 317 308 307 313 306 307 301 306 305 303 302 309 315 313 314 316 313 311 312 313 312 309 309 308 308 312 311 311
309 310 311 310 310 311 312 312 312 309 310 308 306 315 323 316 310 304 303 306 304 299 306 300 304 312 314 316 309 310 306 307 301 311 304 298 307 315 314 312 314 314 313 312 313 312 312 312 310 310 311 312 311 314
308 310 311 310 310 309 308 308 309 309 308 311 311 310 306 305 293 297 295 300 301 308 306 307 302 308 313 313 310 309 304 301 310 304 301 305 314 316 314 313 315 315 314 313 312 313 312 312 313 311 311 313 313 311
308 310 310 310 309 308 309 309 310 310 308 309 305 290 299 296 299 301 302 303 308 307 307 309 307 311 311 308 307 304 306 307 301 299 300 308 313 316 314 316 313 312 313 313 311 311 311 312 311 312 314 313 311 310
308 310 311 310 309 309 309 309 310 312 309 304 303 293 298 303 306 308 309 309 309 312 309 312 311 312 309 306 308 306 302 299 302 300 305 313 315 315 315 313 312 312 312 313 311 311 311 312 312 311 311 311 311 311
308 309 310 310 309 309 308 308 311 310 309 305 303 300 305 304 304 306 308 308 313 314 316 312 308 303 304 305 303 302 300 299 303 310 314 316 315 316 315 314 314 314 314 313 313 313 312 312 311 311 313 312 312 311
309 309 310 310 310 309 308 308 309 303 302 301 300 306 305 305 305 309 309 310 316 310 306 307 302 301 307 303 302 305 302 305 314 314 316 317 317 318 319 318 318 317 316 314 316 315 313 313 314 314 310 312 310 309
308 311 310 310 310 309 309 307 304 302 298 301 299 303 307 308 307 308 313 312 311 309 309 307 309 303 302 301 302 307 311 317 317 317 318 322 323 324 323 321 322 321 320 318 317 317 316 314 311 312 312 310 308 307
309 310 310 311 309 307 303 303 305 297 300 303 304 306 307 308 310 312 313 316 315 317 312 312 306 304 305 311 311 311 314 316 317 319 319 320 322 323 324 324 325 323 322 321 318 314 312 310 309 310 309 308 306 306
309 309 309 310 309 306 303 303 307 302 302 306 308 306 307 307 308 310 311 310 309 309 306 303 305 310 309 310 316 315 313 316 317 314 313 313 316 318 319 321 321 319 313 310 309 306 307 307 308 309 309 308 307 305
307 310 309 309 311 307 306 306 305 307 309 306 309 309 308 309 306 307 308 312 307 307 304 308 309 309 311 316 316 317 318 319 321 318 317 314 318 316 316 320 320 311 309 308 307 306 306 306 307 308 308 307 307 306
310 311 308 308 304 306 307 311 308 310 309 308 306 308 305 306 307 308 312 308 307 311 311 311 309 310 310 315 315 316 321 320 320 321 310 315 316 315 316 318 313 309 309 306 306 306 307 308 310 311 307 306 304 305
308 308 308 304 300 298 298 311 305 308 303 305 310 305 307 307 309 313 309 312 312 318 318 320 315 316 315 320 321 320 318 317 312 316 321 319 320 318 316 315 313 307 306 307 308 308 308 306 308 307 307 305 305 304
308 305 302 300 300 296 307 305 307 305 306 304 303 302 306 308 313 307 303 308 311 315 314 314 321 321 321 321 319 314 315 315 315 320 321 318 316 315 315 313 312 309 310 310 310 310 311 310 305 306 306 306 305 304
296 296 298 291 304 301 300 301 302 304 301 304 302 303 306 312 304 301 302 310 314 314 314 318 319 317 313 317 316 322 323 321 321 317 319 318 314 314 313 312 312 311 312 311 310 310 309 308 307 306 305 305 304 305
290 298 295 301 301 301 302 299 301 302 303 302 304 310 312 307 302 301 309 315 317 316 314 315 315 313 315 315 315 314 315 322 320 318 319 320 317 313 310 308 308 309 313 313 312 308 308 306 305 305 305 303 300 304
291 297 303 307 306 305 303 306 307 305 302 302 306 305 305 300 300 309 319 319 320 318 319 316 319 318 316 313 316 318 318 321 320 317 319 318 317 316 313 309 309 312 315 314 313 310 307 306 306 305 305 306 305 305
301 302 299 305 304 305 302 303 301 301 304 307 308 303 301 300 302 315 317 322 323 321 321 321 321 317 318 319 317 317 318 319 317 316 315 315 316 315 314 314 316 303 311 314 312 310 308 307 307 307 306 305 305 306
301 305 305 302 304 305 304 303 303 307 310 308 304 304 306 311 313 313 322 321 321 322 316 316 319 317 318 320 319 319 317 315 313 311 309 309 309 311 315 312 311 312 308 304 297 305 310 308 308 307 307 307 307 307
301 305 302 302 302 302 306 309 309 310 311 312 314 311 312 316 317 318 318 320 321 317 316 315 318 315 313 314 314 315 316 316 315 313 310 309 310 313 313 313 314 313 310 308 307 304 299 306 304 307 306 307 307 306
306 304 302 303 302 306 309 311 313 313 312 312 312 309 311 317 318 319 319 323 318 317 316 314 315 313 313 312 312 312 311 315 316 316 314 315 312 315 315 315 314 313 311 309 308 307 306 306 307 307 307 307 306 303
303 303 302 301 303 309 310 309 308 309 311 310 309 312 315 311 307 313 319 319 314 311 308 311 312 311 313 313 315 314 306 312 308 309 311 312 314 315 316 314 314 313 312 310 309 308 308 308 308 307 307 309 308 306
304 305 305 304 303 304 308 309 306 306 308 309 310 311 313 309 306 312 320 321 316 313 313 312 312 311 312 314 312 309 305 305 297 294 295 294 295 301 307 310 311 310 309 308 308 309 309 308 307 308 307 307 307 306
Wind_Speed
8 9 10 12 13 14 14 15 15 13 13 14 14 14 14 13 11 6 8 8 2 3 10 10 16 1 4 3 2 4 3 1 3 2 6 6 5 8 4 2 3 1 2 4 4 4 3 2 7 2 4 5 12 5
9 10 10 11 12 13 14 14 15 13 12 13 14 13 13 11 10 7 5 5 7 4 6 13 14 7 6 4 2 5 2 1 1 4 4 3 1 5 5 3 4 2 6 6 8 6 5 3 4 5 5 5 3 8
9 10 10 11 12 13 14 13 14 14 13 13 14 13 12 10 8 5 5 5 4 3 6 8 7 4 4 3 2 3 4 4 4 3 1 3 3 2 2 2 4 2 3 4 5 9 8 7 7 9 8 6 7 9
9 11 11 10 11 13 13 13 14 14 12 12 14 13 11 10 8 6 3 4 4 5 3 6 10 8 4 4 6 3 4 3 2 3 1 2 1 2 1 4 5 7 9 8 3 5 4 7 8 7 7 8 9 8
10 11 11 11 11 13 13 13 14 14 12 13 13 13 12 10 10 7 6 6 5 3 4 7 12 8 7 2 2 1 4 1 1 1 2 4 2 5 1 4 2 1 3 2 4 6 5 5 6 5 8 8 7 9
9 11 10 10 11 12 13 14 14 14 13 13 12 12 10 9 8 5 3 2 1 2 3 4 3 2 7 8 4 4 3 2 1 1 3 2 2 3 1 1 4 4 7 9 5 7 8 8 7 5 5 8 7 6
9 10 10 11 12 12 13 14 14 14 13 12 10 8 8 7 3 5 3 1 6 6 3 4 3 4 8 6 2 2 1 3 2 2 2 1 1 3 1 3 2 6 9 8 8 9 5 6 4 5 4 8 6 6
9 10 11 11 13 13 14 14 13 12 11 9 7 8 9 9 9 7 6 13 3 4 3 3 2 2 5 3 2 4 3 3 1 3 1 2 2 4 2 3 4 4 6 9 7 7 6 7 8 7 4 3 2 3
10 10 10 11 12 13 14 13 12 10 8 6 6 7 4 4 4 3 9 11 3 1 3 3 2 4 2 4 4 2 2 2 3 3 3 4 2 3 7 4 5 6 6 8 8 6 5 8 8 4 6 6 2 4
10 10 10 10 12 13 13 10 8 7 6 5 3 4 4 3 10 5 2 3 4 4 4 4 1 3 4 3 3 3 2 4 3 5 1 2 5 6 8 7 4 4 6 7 7 6 5 5 8 6 6 3 1 4
10 11 9 10 11 12 11 7 6 5 2 3 4 1 3 1 3 3 4 4 4 4 4 4 6 4 1 4 4 4 3 2 1 4 4 3 3 7 11 9 7 5 8 6 4 8 7 5 4 5 5 7 7 7
10 10 9 10 10 11 7 6 3 1 1 4 5 6 3 2 3 4 4 5 6 6 4 10 9 4 1 4 2 1 3 2 5 5 3 3 3 4 11 9 7 8 7 6 3 7 7 6 6 6 5 7 6 7
10 10 9 8 7 5 1 2 3 8 8 4 3 3 2 2 3 6 8 4 4 2 5 5 7 6 3 6 5 1 4 5 3 5 5 6 6 6 8 7 7 8 7 7 7 7 7 6 6 5 6 6 7 6
10 10 8 8 5 2 1 3 6 4 1 3 2 1 4 4 6 7 5 5 2 6 5 5 8 5 4 6 3 6 5 2 4 4 7 5 10 9 8 7 8 8 7 8 9 8 7 7 5 5 6 6 7 6
10 10 8 11 8 7 2 4 7 2 3 3 2 4 8 8 8 6 6 9 8 2 7 2 2 4 5 5 7 4 5 5 6 6 5 8 11 9 9 9 9 8 7 7 8 8 8 8 6 6 6 6 6 6
10 10 6 7 8 7 4 4 2 2 2 2 4 5 7 6 7 5 5 4 4 4 3 1 4 6 6 3 7 7 5 6 6 3 5 11 10 9 8 8 8 8 8 7 8 8 9 9 8 8 7 7 6 7
6 3 7 7 6 6 6 2 2 4 3 4 6 8 10 7 4 3 1 2 2 2 3 0 5 5 2 5 4 5 5 7 3 6 8 9 11 9 7 7 8 8 8 9 8 9 10 10 8 8 8 6 8 7
4 4 7 10 9 4 2 2 2 3 7 7 7 7 6 5 5 5 1 3 2 3 1 4 4 6 7 8 4 3 4 5 5 10 8 8 7 7 7 7 6 7 8 8 7 9 10 10 10 7 8 7 8 6
5 5 6 10 2 1 3 4 3 4 9 7 9 8 7 7 5 4 4 4 3 1 5 3 3 3 4 6 4 5 5 5 8 4 6 8 6 6 2 0 5 6 7 7 7 6 7 11 9 8 6 4 1 4
2 4 6 3 3 3 5 4 5 6 6 5 7 8 8 8 8 6 7 8 5 4 2 4 4 3 3 2 5 2 2 3 6 3 4 4 7 2 2 3 2 7 10 11 10 11 9 8 6 6 5 5 7 4
5 5 7 3 4 6 5 3 4 6 5 3 4 5 4 5 8 10 10 5 4 5 6 8 7 6 3 5 4 4 2 7 4 4 6 6 8 5 2 3 7 8 9 8 8 6 6 5 5 6 8 10 7 6
0 8 2 2 2 4 6 6 4 3 3 6 3 3 1 4 6 7 6 7 5 5 7 7 8 9 8 11 7 10 11 6 2 2 0 10 7 5 4 5 10 8 7 7 6 5 4 4 7 11 6 4 5 8
1 1 2 3 4 3 9 4 4 4 4 4 0 3 4 3 4 1 3 2 4 3 5 5 12 11 11 6 9 4 9 8 4 4 5 5 6 7 8 7 7 10 9 6 4 5 6 7 5 3 7 7 9 5
1 2 3 5 7 5 5 4 3 4 4 4 4 4 6 3 3 4 3 4 6 4 4 6 4 3 7 16 13 14 10 6 5 5 4 9 8 8 7 7 7 8 8 6 5 4 4 6 7 5 6 6 10 8
2 4 3 5 5 5 5 4 8 5 4 3 4 4 2 3 2 3 3 1 1 2 2 4 2 2 8 10 3 3 10 8 5 5 5 9 10 7 7 6 6 7 6 6 7 7 4 5 5 5 5 6 6 9
4 4 4 6 5 6 4 3 3 6 7 5 6 3 1 2 4 3 1 1 1 1 2 0 3 3 8 7 2 6 11 11 7 6 6 6 6 7 8 8 7 6 7 7 5 8 8 7 6 7 5 7 8 5
3 6 8 7 5 5 3 3 5 2 3 1 0 1 2 3 1 3 2 4 3 2 4 5 5 5 5 3 3 5 3 7 6 7 5 5 6 6 8 8 9 7 7 6 6 8 11 10 8 9 9 6 6 4
7 5 9 6 7 6 4 1 1 4 4 3 4 1 1 2 1 1 2 3 3 5 7 3 5 5 5 2 7 4 4 6 9 9 7 6 4 5 6 5 5 4 2 7 7 6 6 6 6 10 12 9 8 9
6 6 6 7 5 4 5 6 7 4 2 1 1 1 2 3 1 3 2 4 6 2 5 4 3 5 6 7 5 6 5 7 9 10 9 7 7 6 6 4 4 4 4 9 13 9 6 4 6 4 8 6 7 5
12 9 7 4 4 4 3 2 5 6 5 5 3 1 2 2 1 3 4 4 5 5 5 8 3 6 6 8 8 8 6 5 5 6 6 5 5 5 6 5 5 5 6 7 8 6 9 8 6 5 4 2 3 5
8 10 11 9 9 9 7 6 7 7 6 5 6 6 3 1 1 3 4 2 3 5 3 4 6 5 6 6 6 6 4 4 7 8 5 5 4 4 5 5 4 5 5 9 9 7 5 4 4 5 7 7 5 4
8 8 8 9 9 8 8 8 7 10 9 8 5 7 4 3 4 6 4 3 5 5 3 8 8 9 9 7 5 5 6 8 9 6 4 2 9 9 7 6 4 2 5 7 7 9 9 6 3 6 5 2 3 5
5 6 7 7 5 1 4 5 3 4 4 3 3 5 3 4 3 0 6 3 4 6 5 6 5 6 8 9 10 7 8 7 8 10 15 13 14 12 7 3 5 5 5 2 1 10 11 12 11 6 7 7 8 6
Wind_Direction
281 289 299 303 306 311 314 322 320 318 320 319 317 319 325 330 343 345 275 281 256 276 291 311 328 315 342 22 5 326 1 299 298 291 108 209 151 201 171 68 272 116 92 223 26 39 86 277 295 86 216 55 122 155
282 289 297 301 303 306 306 314 319 313 313 314 313 314 320 324 338 342 282 331 339 236 277 310 297 27 25 13 9 332 303 182 315 38 356 350 27 141 181 189 306 79 168 142 112 271 265 83 113 71 75 55 19 164
280 289 294 298 299 303 304 307 316 309 304 306 307 309 314 316 327 349 290 311 305 251 269 262 265 222 290 282 21 84 339 8 33 118 276 270 88 82 91 207 192 256 141 118 128 234 236 110 73 62 59 30 17 101
278 287 291 295 299 300 303 308 308 305 300 301 302 304 306 307 315 320 277 314 278 283 266 279 289 141 201 45 57 2 306 7 38 46 234 268 310 100 156 164 110 192 147 165 205 227 119 77 76 77 70 42 19 36
278 284 288 294 296 297 300 301 300 303 299 300 295 297 297 301 310 287 244 243 231 288 320 310 307 251 133 167 121 244 334 246 155 225 229 251 45 25 16 61 59 248 178 114 210 163 143 123 89 44 64 68 29 63
276 281 285 289 290 292 296 299 302 301 299 294 288 289 289 296 317 280 283 151 351 333 269 282 274 208 163 136 169 125 267 279 238 223 249 114 57 99 95 197 192 105 71 104 105 106 116 124 111 49 94 76 38 66
276 280 289 292 290 292 297 300 299 296 292 290 286 281 280 288 292 242 291 302 338 318 247 264 235 194 142 130 164 176 195 276 194 288 215 81 60 76 56 156 46 45 111 112 105 96 99 121 151 136 72 102 62 338
280 285 290 289 290 299 303 302 296 288 285 285 289 280 281 286 278 277 242 235 179 265 278 267 239 170 159 160 216 202 187 218 211 209 342 85 53 26 242 225 220 165 121 123 129 142 167 169 123 117 90 50 153 235
284 289 292 288 294 300 303 293 287 282 286 291 297 291 281 206 231 224 108 127 209 277 269 226 218 193 270 225 189 178 162 222 198 187 223 114 81 208 219 256 298 167 175 146 142 168 202 133 116 117 156 141 271 311
294 293 292 294 299 303 300 284 280 272 288 303 269 209 220 182 117 138 60 197 201 217 221 242 261 191 181 205 238 126 137 219 191 233 59 143 219 222 201 212 244 240 139 147 150 178 188 154 153 182 144 154 191 82
293 297 297 298 302 302 297 275 267 294 351 235 233 283 352 143 209 214 204 213 178 218 213 213 233 261 49 159 230 144 166 253 197 244 145 240 258 225 179 181 210 203 144 164 182 174 158 148 151 148 153 108 77 52
292 295 296 297 306 305 292 278 241 187 251 306 294 270 294 295 258 223 213 208 187 206 210 190 208 148 36 307 213 122 171 195 227 165 169 270 282 131 153 175 199 151 146 163 150 110 104 100 71 70 100 125 116 106
288 289 288 301 314 340 6 337 291 298 311 245 210 188 81 339 11 226 222 196 199 202 196 174 180 162 89 41 318 321 209 200 257 176 208 197 164 154 157 172 150 141 157 144 113 109 106 107 95 103 97 94 99 93
289 290 286 291 274 225 90 358 339 321 283 262 214 43 204 198 227 229 265 275 256 252 279 196 181 149 176 139 105 237 226 270 220 222 213 181 166 162 164 151 141 158 172 145 137 134 142 133 128 96 80 108 101 90
288 290 281 269 216 211 204 342 336 279 271 212 198 223 222 232 271 279 299 289 285 264 347 340 152 160 168 162 182 183 192 225 209 217 220 159 158 149 156 157 156 163 177 161 152 152 154 147 148 141 128 125 117 107
286 291 227 151 175 187 193 298 258 280 269 250 237 250 254 251 252 249 277 29 313 14 337 253 16 51 305 200 186 183 198 199 224 222 135 138 153 152 154 164 169 168 171 175 166 159 159 158 162 169 161 140 150 139
281 250 156 167 168 166 175 241 208 193 235 240 235 226 266 289 273 251 302 56 23 97 293 19 130 173 244 264 242 175 201 234 137 133 137 144 153 162 164 165 173 173 175 180 172 164 169 167 161 142 142 149 104 105
255 143 143 143 155 128 175 228 248 228 240 229 242 247 253 259 243 254 172 102 49 114 293 264 105 198 210 203 184 242 39 349 141 140 150 145 142 153 171 177 182 179 174 180 172 166 160 145 145 142 136 130 118 135
355 151 144 164 85 289 202 206 201 256 237 246 230 249 254 263 249 248 153 150 151 60 322 332 204 236 292 2 58 74 38 68 85 8 73 42 59 81 28 104 204 186 173 169 151 118 118 125 121 109 103 81 226 157
223 157 151 152 200 242 213 202 199 249 255 216 225 221 232 227 235 237 230 203 190 141 83 290 266 239 86 57 333 23 45 336 112 267 83 39 333 346 11 325 241 92 83 79 91 104 106 98 101 106 120 171 230 202
163 174 172 206 231 227 276 207 223 255 273 237 236 212 236 193 221 238 242 199 111 184 170 221 232 228 232 213 231 279 257 246 151 154 143 170 210 191 216 284 106 104 110 113 112 112 98 125 153 159 189 220 171 157
90 158 133 179 267 270 247 227 230 244 267 267 322 150 182 255 240 224 234 239 231 171 191 172 207 221 219 215 176 220 241 231 2 343 216 139 178 196 205 132 122 119 124 137 144 141 142 178 200 215 181 141 105 122
246 196 189 175 229 246 261 256 245 246 263 290 85 215 213 205 155 282 269 235 267 216 197 173 191 185 187 167 128 261 250 205 187 228 258 195 138 133 132 117 126 133 145 176 169 181 201 198 193 233 147 132 121 137
113 230 225 196 206 256 255 222 213 248 248 248 255 278 313 113 46 23 270 263 257 51 32 15 334 181 174 166 173 196 203 194 197 232 207 131 114 114 115 126 142 159 162 161 192 211 196 200 179 122 132 145 139 154
189 249 189 240 235 237 251 223 221 214 273 313 329 266 197 140 89 236 246 21 87 96 149 161 213 1 46 332 20 357 175 182 150 79 31 109 116 119 128 144 154 165 186 183 188 204 179 126 118 134 154 144 148 144
206 233 207 231 219 218 234 275 251 248 256 224 226 298 360 245 210 220 79 52 163 70 303 134 92 22 64 291 65 41 23 303 111 104 111 117 134 146 154 157 161 191 214 230 184 156 140 142 155 167 145 123 144 173
235 236 208 231 267 297 300 342 358 310 268 257 347 139 269 248 272 58 353 4 51 35 273 234 201 183 147 153 117 87 115 269 130 131 114 108 127 142 151 169 175 186 205 221 147 173 173 173 177 167 142 140 149 176
232 263 256 248 253 244 242 111 39 342 318 5 309 271 289 192 263 18 295 292 247 244 280 157 136 140 139 154 102 132 248 99 93 97 102 112 119 133 144 178 207 206 316 240 200 148 148 162 160 151 154 169 187 213
232 238 244 257 271 246 224 197 196 198 10 309 315 257 232 204 306 279 292 285 291 292 23 296 155 161 165 147 164 148 133 134 139 143 147 150 154 166 189 177 181 140 104 84 65 109 156 157 143 123 159 165 154 162
239 242 229 228 267 238 237 269 120 148 196 202 155 208 274 266 242 267 284 307 351 21 32 351 284 99 128 133 133 137 151 148 156 151 170 169 170 170 175 167 174 186 155 131 121 111 105 107 108 103 107 189 199 184
222 211 225 238 241 239 234 227 150 160 192 212 200 218 205 16 105 207 254 279 74 31 1 260 100 90 106 111 131 144 155 166 168 194 180 160 190 152 169 184 196 206 180 164 152 149 144 153 166 186 208 220 223 204
243 224 219 229 253 258 241 242 180 184 203 215 222 200 120 85 21 332 337 62 117 157 95 71 68 57 68 56 46 69 67 54 50 50 50 235 153 196 194 183 206 154 115 112 131 160 171 170 207 252 210 162 130 203
318 302 294 278 259 308 272 265 228 218 218 203 104 127 103 117 118 341 295 33 73 81 92 96 96 81 71 68 82 79 71 92 96 71 70 55 81 74 48 66 94 97 108 351 266 151 155 194 221 200 130 195 206 222